TimeCST,TemperatureF,Dew PointF,Humidity,Sea Level PressureIn,VisibilityMPH,Wind Direction,Wind SpeedMPH,Gust SpeedMPH,PrecipitationIn,Events,Conditions,WindDirDegrees,DateUTC
12:15 AM,63.0,60.8,93,30.01,10.0,SE,4.6,-,N/A,,Overcast,140,2013-11-05 06:15:00
12:35 AM,63.0,60.8,93,30.00,10.0,SSE,5.8,-,N/A,,Overcast,150,2013-11-05 06:35:00
12:55 AM,63.5,61.0,91,30.00,10.0,SSE,4.6,-,N/A,,Overcast,150,2013-11-05 06:55:00
1:15 AM,63.1,61.2,93,30.00,7.0,SSE,4.6,-,N/A,,Overcast,160,2013-11-05 07:15:00
1:35 AM,63.5,61.2,92,29.99,10.0,SSE,8.1,-,N/A,,Overcast,150,2013-11-05 07:35:00
1:55 AM,63.7,61.3,92,29.99,10.0,SSE,5.8,-,N/A,,Overcast,160,2013-11-05 07:55:00
2:15 AM,63.9,61.3,91,29.98,10.0,SSE,6.9,-,N/A,,Overcast,160,2013-11-05 08:15:00
2:35 AM,64.0,61.3,91,29.98,10.0,SSE,5.8,-,N/A,,Overcast,160,2013-11-05 08:35:00
2:55 AM,64.4,61.7,91,29.98,10.0,SSE,4.6,-,N/A,,Overcast,160,2013-11-05 08:55:00
3:15 AM,64.6,61.7,90,29.98,10.0,South,6.9,-,N/A,,Overcast,170,2013-11-05 09:15:00
3:35 AM,64.8,61.7,90,29.98,10.0,South,5.8,-,N/A,,Overcast,170,2013-11-05 09:35:00
3:55 AM,64.8,61.9,90,29.98,10.0,South,4.6,-,N/A,,Overcast,170,2013-11-05 09:55:00
4:15 AM,64.9,62.1,90,29.97,10.0,SSE,6.9,-,N/A,,Overcast,160,2013-11-05 10:15:00
4:35 AM,65.3,62.1,89,29.98,10.0,South,6.9,-,N/A,,Overcast,180,2013-11-05 10:35:00
4:55 AM,65.3,61.9,89,29.97,10.0,South,5.8,-,N/A,,Overcast,180,2013-11-05 10:55:00
5:15 AM,65.5,61.9,88,29.97,10.0,South,5.8,-,N/A,,Overcast,170,2013-11-05 11:15:00
5:35 AM,65.3,61.7,88,29.97,10.0,South,10.4,-,N/A,,Overcast,170,2013-11-05 11:35:00
5:55 AM,65.3,61.7,88,29.97,10.0,South,6.9,-,N/A,,Mostly Cloudy,170,2013-11-05 11:55:00
6:15 AM,65.1,61.7,89,29.98,10.0,South,5.8,-,N/A,,Overcast,180,2013-11-05 12:15:00
6:35 AM,65.1,61.7,89,29.98,10.0,South,5.8,-,N/A,Rain,Light Rain,170,2013-11-05 12:35:00
6:55 AM,64.6,61.7,90,29.98,10.0,South,4.6,-,N/A,,Overcast,170,2013-11-05 12:55:00
7:15 AM,64.6,61.7,90,29.99,10.0,SSE,4.6,-,N/A,,Overcast,160,2013-11-05 13:15:00
7:35 AM,64.6,62.1,92,30.00,10.0,Calm,Calm,-,N/A,,Overcast,0,2013-11-05 13:35:00
7:55 AM,64.4,61.9,92,30.00,10.0,SSE,3.5,-,N/A,,Overcast,160,2013-11-05 13:55:00
8:15 AM,64.8,62.1,91,30.01,10.0,SSE,5.8,-,N/A,,Overcast,160,2013-11-05 14:15:00
8:35 AM,65.3,62.1,89,30.02,10.0,SSE,4.6,-,N/A,,Overcast,160,2013-11-05 14:35:00
8:55 AM,65.3,62.1,89,30.02,10.0,SSE,6.9,-,N/A,,Overcast,160,2013-11-05 14:55:00
9:15 AM,65.3,62.2,90,30.02,10.0,SSE,5.8,-,N/A,Rain,Light Rain,150,2013-11-05 15:15:00
9:35 AM,65.7,62.2,89,30.02,10.0,SSE,5.8,-,N/A,,Overcast,160,2013-11-05 15:35:00
9:55 AM,66.9,62.6,86,30.03,10.0,SSE,6.9,-,N/A,,Overcast,160,2013-11-05 15:55:00
10:15 AM,67.6,62.6,84,30.02,10.0,South,11.5,-,N/A,,Overcast,170,2013-11-05 16:15:00
10:35 AM,67.8,62.6,83,30.02,10.0,SSE,6.9,-,N/A,,Overcast,150,2013-11-05 16:35:00
10:55 AM,68.0,63.0,84,30.02,10.0,SSE,6.9,-,N/A,,Overcast,160,2013-11-05 16:55:00
11:15 AM,68.4,63.1,83,30.01,10.0,SSE,6.9,-,N/A,,Overcast,160,2013-11-05 17:15:00
11:35 AM,68.5,63.0,82,30.00,10.0,South,5.8,-,N/A,,Overcast,170,2013-11-05 17:35:00
11:55 AM,69.4,62.4,78,30.00,10.0,South,9.2,-,N/A,,Overcast,180,2013-11-05 17:55:00
12:15 PM,69.4,61.3,75,29.99,10.0,South,10.4,-,N/A,,Overcast,190,2013-11-05 18:15:00
12:35 PM,69.8,61.7,75,29.98,10.0,SSW,10.4,-,N/A,,Overcast,200,2013-11-05 18:35:00
12:55 PM,70.2,62.2,76,29.97,10.0,South,10.4,-,N/A,,Overcast,190,2013-11-05 18:55:00
1:15 PM,70.5,63.0,77,29.96,10.0,South,10.4,-,N/A,,Overcast,180,2013-11-05 19:15:00
1:35 PM,70.0,63.0,78,29.96,10.0,South,16.1,19.6,N/A,,Overcast,190,2013-11-05 19:35:00
1:55 PM,68.5,64.4,87,29.95,10.0,South,8.1,-,N/A,,Light Drizzle,170,2013-11-05 19:55:00
2:15 PM,68.2,64.4,88,29.95,10.0,South,10.4,-,N/A,,Overcast,170,2013-11-05 20:15:00
2:35 PM,68.9,64.8,87,29.94,10.0,SSE,6.9,-,N/A,,Overcast,160,2013-11-05 20:35:00
2:55 PM,70.0,65.3,85,29.94,10.0,SSE,10.4,16.1,N/A,,Overcast,150,2013-11-05 20:55:00
3:15 PM,71.4,64.9,80,29.93,10.0,SSE,10.4,-,N/A,,Overcast,160,2013-11-05 21:15:00
3:35 PM,71.1,64.8,80,29.94,10.0,South,10.4,17.3,N/A,,Overcast,170,2013-11-05 21:35:00
3:55 PM,72.0,64.8,78,29.93,10.0,SSE,8.1,16.1,N/A,,Mostly Cloudy,160,2013-11-05 21:55:00
4:15 PM,72.0,64.9,78,29.93,10.0,South,6.9,-,N/A,,Scattered Clouds,170,2013-11-05 22:15:00
4:35 PM,72.5,64.9,77,29.94,10.0,South,6.9,-,N/A,,Scattered Clouds,180,2013-11-05 22:35:00
4:55 PM,71.6,64.9,79,29.94,10.0,SSW,6.9,-,N/A,,Overcast,200,2013-11-05 22:55:00
5:15 PM,71.2,65.3,81,29.94,10.0,SSE,3.5,-,N/A,,Overcast,160,2013-11-05 23:15:00
5:35 PM,70.3,65.1,83,29.95,10.0,Calm,Calm,-,N/A,,Scattered Clouds,0,2013-11-05 23:35:00
5:55 PM,69.1,64.6,86,29.95,10.0,SSE,3.5,-,N/A,,Clear,160,2013-11-05 23:55:00
6:15 PM,68.2,64.2,87,29.95,10.0,Calm,Calm,-,N/A,,Clear,0,2013-11-06 00:15:00
6:35 PM,63.9,61.9,93,29.97,10.0,Calm,Calm,-,N/A,,Mostly Cloudy,0,2013-11-06 00:35:00
6:55 PM,65.5,64.0,95,29.97,10.0,Calm,Calm,-,N/A,,Overcast,0,2013-11-06 00:55:00
7:15 PM,66.6,64.4,93,29.98,10.0,Calm,Calm,-,N/A,,Overcast,0,2013-11-06 01:15:00
7:35 PM,66.6,64.6,93,29.98,10.0,Calm,Calm,-,N/A,,Overcast,0,2013-11-06 01:35:00
7:55 PM,67.3,64.6,91,29.99,10.0,Calm,Calm,-,N/A,,Overcast,0,2013-11-06 01:55:00
8:15 PM,67.1,64.6,92,29.99,10.0,Calm,Calm,-,N/A,,Overcast,0,2013-11-06 02:15:00
8:35 PM,66.4,64.4,93,30.00,10.0,Calm,Calm,-,N/A,,Overcast,0,2013-11-06 02:35:00
8:55 PM,66.6,64.6,93,30.01,10.0,Calm,Calm,-,N/A,,Overcast,0,2013-11-06 02:55:00
9:15 PM,66.9,64.8,93,30.01,10.0,SE,3.5,-,N/A,,Mostly Cloudy,130,2013-11-06 03:15:00
9:35 PM,68.2,64.8,89,30.02,10.0,Calm,Calm,-,N/A,,Mostly Cloudy,0,2013-11-06 03:35:00
9:55 PM,68.0,64.9,90,30.02,10.0,Calm,Calm,-,N/A,,Overcast,0,2013-11-06 03:55:00
10:15 PM,68.2,65.3,90,30.03,10.0,Calm,Calm,-,N/A,,Overcast,0,2013-11-06 04:15:00
10:35 PM,68.5,65.8,91,30.04,10.0,Calm,Calm,-,N/A,,Overcast,0,2013-11-06 04:35:00
10:55 PM,68.4,65.7,91,30.04,10.0,SSE,3.5,-,N/A,,Overcast,160,2013-11-06 04:55:00
11:15 PM,68.0,65.5,92,30.04,10.0,Calm,Calm,-,N/A,,Overcast,0,2013-11-06 05:15:00
11:35 PM,67.5,65.3,93,30.03,10.0,Calm,Calm,-,N/A,,Overcast,0,2013-11-06 05:35:00
11:55 PM,66.9,65.3,95,30.02,10.0,Calm,Calm,-,N/A,,Overcast,0,2013-11-06 05:55:00